Время (UTC), дата Ветер
(°,м/с) 
Видим.   Явления Облачность Т
(°С)
Тd
(°С)
f(%) Тe
(°С)
Pmin
(гПа)
dP
(гПа)
Po
(мм)
O2
(г/м3)
Тmin Tmax R s Состояние
почвы
00 12.11.14 080 (В) 6{10}  8000 м    10/6 1000 м средняя 
[Sc|Ac und]
+5.8 +3.8 87 +3  1027.1  -0.6  763  301           
03 12.11.14 080 (В) 8000 м    10/8 240 м средняя 
[Sc|Ac und]
+5.6 +4.1 90 +3  1026.6  -0.5  763  301  +5.4         
06 12.11.14 080 (В) 10 км    10/10 270 м 
[St]
+6.3 +4.8 90 +4  1026.5  -0.1  763  300           
12 12.11.14 070 (В) 4000 м  дымка  10/10 210 м 
[St]
+6.6 +5 90 +5  1025.3  -1  762  299           
15 12.11.14 070 (В) 8000 м  дымка  10/10 700 м 
[Sc]
+7.6 +5.5 87 +6  1024.6  -0.5  762  298    +7.7       
18 12.11.14 070 (В) 8000 м    9/9 800 м 
[Sc]
+6.8 +4.5 85 +5  1024.2  -0.3  761  299           
21 12.11.14 080 (В) 8000 м    10/10 330 м 
[Sc]
+6.3 +4.5 88 +4  1023.5  -0.6  761  299           
03 13.11.14 080 (В) 1100 м  слаб. морось  10/10 60 м 
[St]
+5.9 +5.5 97 +4  1022.9  -0.5  760  299  +5.3    0.0     
06 13.11.14 090 (В) 0900 м  слаб. морось{туман}  ?/?  
+6.3 +6.3 100 +4  1023.3  0.4  761  299           
12 13.11.14 100 (В) 10 км  {морось, туман}  6/6 630 м 
[Sc]
+9.8 +5.9 77 +9  1021.8  -0.8  760  294           
21 13.11.14 080 (В) 8000 м    4/3 600 м средняя 
[St|Ac trans]
+6.4 +5.6 95 +5  1021.7  -0.5  759  298           
00 14.11.14 080 (В) 8000 м    3/0 средняя 
[Ac trans]
+6.3 +5.5 95 +5  1021.5  -0.2  759  298           
03 14.11.14 060 (СВ) 7000 м  дымка  9/5 800 м средняя 
[Sc|Ac trans]
+5.6 +5.1 97 +5  1021.5  -0.1  759  299  +4.8         
06 14.11.14 070 (В) 7000 м  дымка  8/3 1000 м средняя 
[Sc|Ac trans]
+8.3 +7.3 93 +7  1022.1  0.6  760  296           
09 14.11.14 070 (В) 10 км    9/6 660 м средняя 
[Sc|Ac und]
+9.9 +7.6 86 +9  1021.7  -0.3  759  294           
12 14.11.14 070 (В) 10 км    10/6 800 м средняя 
[Sc|Ac und]
+10 +6.7 80 +8  1020.9  -0.8  759  294           
15 14.11.14 070 (В) 8000 м  дымка  9/9 330 м 
[Sc]
+8.3 +6.3 87 +7  1021.6  0.6  759  296    +10.6       
03 15.11.14 080 (В) 5000 м  дымка  9/6 180 м средняя 
[Sc|Ac trans]
+8.3 +7.4 94 +7  1020.6  -0.1  759  295  +7.3         
12 15.11.14 070 (В) 8-11{13}  10 км    9/5 450 м средняя 
[Sc|Ac trans]
+8.2 +5.9 85 +6  1020.9  -0.1  759  296           
15 15.11.14 080 (В) 8-10{11}  8000 м    9/6 270 м средняя 
[St|Ac trans]
+6.3 +4.6 89 +3  1021.4  0.4  759  298    +10.5       
03 16.11.14 070 (В) 7-10{11}  8000 м    10/8 300 м средняя 
[Sc|Ac und]
+2.1 +0.8 91 -1  1022.3  0.3  760  304  +2.1    0.0     
06 16.11.14 070 (В) 8-12{12}  10 км    10/8 240 м средняя 
[Sc|Ac und]
+1.2 +0 92 -3  1023.8  1.4  761  305  +1.2         
09 16.11.14 070 (В) 8-11{12}  10 км    10/8 300 м средняя 
[St|Ac trans]
+1.8 -0.7 83 -2  1024.1  0.3  761  305           
15 16.11.14 070 (В) 9-13{13}  8000 м    10/10 570 м 
[Sc]
+0.2 -2.9 80 -4  1025.3  1.1  762  307    +2.2  0.0     
03 17.11.14 090 (В) 9-13{15}  10 км    10/10 480 м 
[Sc]
-2.2 -5.3 79 -7  1027.5  0.6  763  311  -2.3         
15 17.11.14 080 (В) 8-11{13}  8000 м  в посл. час переохл. осадки (гололёд){дождь} [диам. гололёда 0 мм]  10/10 400 м 
[Sc]
-4 -5.9 87 -9  1027.9  0.1  764  313    -2.2  0.0     
03 18.11.14 080 (В) 7-10{11}  10 км    10/10 400 м 
[Sc]
-2.1 -4.4 84 -6  1027.2  763  310  -4    0.0     
12 18.11.14 100 (В) 10-13{14}  10 км    10/6 540 м средняя 
[Sc|Ac und]
+2.5 -0.9 78 -2  1026.9  763  305           
15 18.11.14 090 (В) 9-14{13}  8000 м    10/6 540 м средняя 
[Sc|Ac und]
+2.3 -0.9 79 -2  1027.7  0.8  764  305    +2.7       
21 18.11.14 080 (В) 7-11{12}  6000 м  слаб. дождь{морось}  10/10 270 м 
[Sc]
+0.6 +0 96 -3  1028.7  0.7  764  307           
03 19.11.14 090 (В) 8-11{12}  8000 м    10/10 180 м 
[St]
-0.3 -0.9 96 -5  1028.9  0.4  765  309  -0.3    0.6     
15 19.11.14 090 (В) 7-10{11}  8000 м  {морось}  10/8 300 м средняя 
[St|Ac und]
+1.9 +0.7 92 -2  1030.1  0.6  765  306    +1.9  0.4     
00 20.11.14 090 (В) 6{12}  10 км    10/8 420 м средняя 
[Sc|Ac und]
+1.3 -0.7 86 -2  1028.8  -0.1  764  307           
03 20.11.14 090 (В) 7-10{11}  8000 м    10/8 420 м средняя 
[Sc|Ac und]
+1.1 -1 86 -3  1028  -0.8  764  307  +0.9         
12 20.11.14 090 (В) 10-15{16}  10 км    ясно 
+3.9 -2 65 1027.5  -0.5  764  304           
15 20.11.14 080 (В) 9-13{15}  10 км    1/0 средняя 
[Ac trans]
+1.5 -4.7 63 -3  1028.1  0.6  764  307    +4.8       
21 20.11.14 080 (В) 9-13{15}  8000 м    ясно 
-3.2 -7.6 71 -8  1028.6  -0.2  764  312           
00 21.11.14 080 (В) 9-13{15}  8000 м    ясно 
-4.4 -8.7 72 -10  1028.4  -0.4  764  314           
15 21.11.14 080 (В) 10-14{15}  10 км    1/0 средняя 
[Ac trans]
-1.1 -10.5 49 -6  1026.3  0.5  763  310    +3.1       
18 21.11.14 070 (В) 11-14{15}  8000 м    ясно 
-3.8 -7.5 75 -10  1026.5  0.1  763  312           
21 21.11.14 070 (В) 10-14{14}  8000 м    ясно 
-5.6 -7.1 89 -12  1026.9  0.4  763  315           
00 22.11.14 070 (В) 7-10{14}  8000 м    ясно 
-6.1 -8 86 -11  1026.3  -0.5  762  315           
09 22.11.14 070 (В) 7-11{11}  10 км    ясно 
-0.6 -11.3 44 -5  1025.4  -0.7  762  309           
12 22.11.14 060 (СВ) 7-10{12}  10 км    ясно 
+1.3 -13.4 32 -2  1024.7  -0.6  761  307           
15 22.11.14 050 (СВ) 7-10{10}  10 км    10/10 700 м 
[Sc]
-0.1 -12.6 38 -4  1025.7  0.9  762  308    +1.4       
18 22.11.14 060 (СВ) 6{11}  8000 м    3/0 средняя 
[Ac trans]
-3.9 -11.7 55 -8  1026.1  0.3  762  313           
21 22.11.14 050 (СВ) 8000 м    3/0 средняя 
[Ac trans]
-5 -11.6 60 -9  1026.5  0.3  763  314           
00 23.11.14 050 (СВ) 8000 м    3/0 средняя 
[Ac trans]
-5.9 -11.4 65 -10  1026.4  -0.1  763  315           
06 23.11.14 030 (СВ) 10 км    4/0 средняя, верхняя 
[Ac trans|Ci fib]
-6.3 -9.9 76 -10  1028  1.5  764  316  -8         
09 23.11.14 040 (СВ) 10 км    3/0 верхняя 
[Ci fib]
-1.5 -8 61 -5  1028.3  0.3  764  310           
12 23.11.14 020 (С) 10 км    1/0 средняя 
[Ac trans]
+1.4 -6.1 57 1028.1  -0.1  764  307           
18 23.11.14 070 (В) 8000 м    ясно 
-4.9 -8 79 -6  1029  0.3  764  315           
21 23.11.14 010 (С) 8000 м    ясно 
-3.9 -6.7 81 -5  1029.8  0.8  765  313           
00 24.11.14 040 (СВ) 8000 м    ясно 
-3.5 -6.4 80 -6  1030  0.1  765  313           
03 24.11.14 060 (СВ) 8000 м    ясно 
-3.8 -5.6 87 -8  1031.1  1.1  766  314  -5.6         
12 24.11.14 080 (В) 9-13{14}  10 км  {снег}  10/10 450 м 
[Sc]
-2.9 -5.5 82 -8  1034.9  769  314           
15 24.11.14 080 (В) 10-14{14}  8000 м    10/10 500 м 
[Sc]
-3.4 -6.4 80 -9  1035.4  0.4  769  315    -2.5  0.0     
18 24.11.14 090 (В) 8-12{14}  8000 м    10/10 540 м 
[Sc]
-3.6 -6.5 80 -9  1035.7  0.3  770  315           
03 25.11.14 090 (В) 7{15}  8000 м    10/10 420 м 
[Sc]
-3.1 -5.5 84 -8  1034.6  -0.2  769  314  -4.5         
15 25.11.14 080 (В) 10{14}  8000 м  в посл. час снег  10/10 540 м 
[Sc]
-4.1 -7.3 78 -10  1032.5  -0.5  767  315    -3  0.0     
03 26.11.14 070 (В) 8-11{11}  2100 м  слаб. снег  10/10 120 м 
[Sc]
-6.4 -7.7 91 -12  1028.1  -0.7  764  316  -6.4    0.0     
15 26.11.14 070 (В) 8-11{12}  8000 м    10/8 500 м средняя 
[Sc|Ac und]
-4.6 -7.7 79 -10  1026  762  313    -4.5  0.4     
03 27.11.14 080 (В) 7-11{11}  8000 м  в посл. час снег  10/10 450 м 
[Sc]
-3.7 -6.4 82 -8  1024.8  -0.2  761  312  -5.3    0.0     
12 27.11.14 070 (В) 6-10{12}  10 км  {ливн. осадки, снег}  10/5 450 м средняя 
[Sc|Ac und]
-2.5 -4.3 87 -6  1025.5  762  310           
15 27.11.14 080 (В) 9{12}  8000 м    10/6 540 м средняя 
[Sc|Ac und]
-1.5 -4.2 82 -6  1025.9  0.4  762  309    -1.5  0.0     
18 27.11.14 080 (В) 6{12}  10 км    10/6 450 м средняя 
[Sc|Ac und]
-1.8 -6.5 70 -6  1026.4  0.5  763  310           
09 28.11.14 090 (В) 10 км    10/8 400 м средняя 
[Sc|Ac und]
-1.7 -4.1 84 -5  1028.9  0.6  764  310           
12 28.11.14 100 (В) 10 км    10/8 420 м средняя 
[Sc|Ac und]
-0.2 -1.8 89 -3  1028.9  765  309           
21 28.11.14 090 (В) 4000 м    10/10 120 м 
[St]
-1.8 -2.4 96 -6  1030.5  0.1  766  311           
03 29.11.14 080 (В) 6000 м  дымка  10/10 100 м 
[St]
-3 -3.3 98 -7  1029.4  -0.8  765  312  -3         
06 29.11.14 080 (В) 0300 м  туман  ?/?  
-2.7 -2.7 100 -6  1029.5  0.1  765  312           
09 29.11.14 080 (В) 0900 м  снежные зёрна{туман}  ?/?  
-2.4 -2.5 99 -5  1028.7  -0.8  764  311           
12 29.11.14 070 (В) 1300 м  дымка{снег, морось} [диам. гололёда 2 мм]  10/10 100 м 
[St]
-2.6 -2.6 100 -7  1026.9  -1.8  763  311           
15 29.11.14 080 (В) 1700 м  слаб. переохл. морось (гололёд) [диам. гололёда 3 мм]  10/10 60 м 
[St]
-3.3 -3.6 98 -7  1026.2  -0.6  762  311    -2  0.0     
18 29.11.14 080 (В) 1900 м  слаб. переохл. морось (гололёд) [диам. гололёда 4 мм]  10/10 60 м 
[St]
-3.4 -3.7 98 -8  1024.8  -1.2  761  311           
00 30.11.14 080 (В) 1800 м  слаб. ливневой снег [диам. гололёда 3 мм]  10/8 100 м кучево-дожд., средняя 
[Cb calv|Ac und]
-3.7 -4 98 -8  1020.5  -2.1  758  310           
03 30.11.14 080 (В) 7-11{11}  0800 м  ливневой снег [диам. гололёда 2 мм]  ?/?  
-3.2 -3.5 98 -8  1017.8  -2.6  756  309  -3.8       
06 30.11.14 080 (В) 7-10{12}  0700 м  ливневой снег [диам. гололёда 2 мм]  ?/?  
-2.9 -3.1 99 -7  1016.8  -0.9  755  308           
15 30.11.14 080 (В) 5{10}  1800 м  дождь со снегом{ливн. осадки} [диам. гололёда 6 мм]  10/8 120 м средняя 
[Frnb|As op]
-1.5 -1.7 99 -5  1013.7  -0.1  753  305    -1.4     
03 01.12.14 220 (ЮЗ) 3400 м  снежные зёрна{туман} [диам. гололёда 7 мм]  10/10 120 м 
[St]
-2.9 -3 99 -5  1014.5  0.2  754  307  -2.9       
09 01.12.14 030 (СВ) 2900 м  слаб. снег [диам. гололёда 7 мм]  10/8 240 м средняя 
[Sc|Ac und]
-4 -4.7 95 -7  1017.4  1.5  756  310           
Время (UTC), дата Ветер
(°,м/с) 
Видим.   Явления Облачность Т
(°С)
Тd
(°С)
f(%) Тe
(°С)
Pmin
(гПа)
dP
(гПа)
Po
(мм)
O2
(г/м3)
Тmin Tmax R s Состояние
почвы